Year,Month,Day,Hour,Minute,Value (Times are PST for temperature in C)
2013,12,12,00,00,-4.60
2013,12,12,00,04,-4.40
2013,12,12,00,05,-4.40
2013,12,12,00,06,-4.40
2013,12,12,00,07,-4.40
2013,12,12,00,08,-4.40
2013,12,12,00,09,-4.40
2013,12,12,00,10,-4.40
2013,12,12,00,11,-4.40
2013,12,12,00,12,-4.40
2013,12,12,00,13,-4.40
2013,12,12,00,14,-4.40
2013,12,12,00,15,-4.40
2013,12,12,00,19,-4.30
2013,12,12,00,20,-4.30
2013,12,12,00,21,-4.30
2013,12,12,00,22,-4.30
2013,12,12,00,23,-4.30
2013,12,12,00,24,-4.30
2013,12,12,00,25,-4.30
2013,12,12,00,26,-4.30
2013,12,12,00,27,-4.30
2013,12,12,00,28,-4.30
2013,12,12,00,29,-4.30
2013,12,12,00,30,-4.30
2013,12,12,00,34,-4.40
2013,12,12,00,35,-4.40
2013,12,12,00,36,-4.40
2013,12,12,00,37,-4.40
2013,12,12,00,38,-4.40
2013,12,12,00,39,-4.40
2013,12,12,00,40,-4.40
2013,12,12,00,41,-4.40
2013,12,12,00,42,-4.40
2013,12,12,00,43,-4.40
2013,12,12,00,44,-4.40
2013,12,12,00,45,-4.40
2013,12,12,00,49,-4.40
2013,12,12,00,50,-4.40
2013,12,12,00,51,-4.40
2013,12,12,00,52,-4.40
2013,12,12,00,53,-4.40
2013,12,12,00,54,-4.40
2013,12,12,00,55,-4.40
2013,12,12,00,56,-4.40
2013,12,12,00,57,-4.40
2013,12,12,00,58,-4.40
2013,12,12,00,59,-4.40
2013,12,12,01,00,-4.40
2013,12,12,01,04,-4.30
2013,12,12,01,05,-4.30
2013,12,12,01,06,-4.30
2013,12,12,01,07,-4.30
2013,12,12,01,08,-4.30
2013,12,12,01,09,-4.30
2013,12,12,01,10,-4.30
2013,12,12,01,11,-4.30
2013,12,12,01,12,-4.30
2013,12,12,01,13,-4.30
2013,12,12,01,14,-4.30
2013,12,12,01,15,-4.30
2013,12,12,01,19,-4.30
2013,12,12,01,20,-4.30
2013,12,12,01,21,-4.30
2013,12,12,01,22,-4.30
2013,12,12,01,23,-4.30
2013,12,12,01,24,-4.30
2013,12,12,01,25,-4.30
2013,12,12,01,26,-4.30
2013,12,12,01,27,-4.30
2013,12,12,01,28,-4.30
2013,12,12,01,29,-4.30
2013,12,12,01,30,-4.30
2013,12,12,01,34,-4.40
2013,12,12,01,35,-4.40
2013,12,12,01,36,-4.40
2013,12,12,01,37,-4.40
2013,12,12,01,38,-4.40
2013,12,12,01,39,-4.40
2013,12,12,01,40,-4.40
2013,12,12,01,41,-4.40
2013,12,12,01,42,-4.40
2013,12,12,01,43,-4.40
2013,12,12,01,44,-4.40
2013,12,12,01,45,-4.40
2013,12,12,01,49,-4.30
2013,12,12,01,50,-4.30
2013,12,12,01,51,-4.30
2013,12,12,01,52,-4.30
2013,12,12,01,53,-4.30
2013,12,12,01,54,-4.30
2013,12,12,01,55,-4.30
2013,12,12,01,56,-4.30
2013,12,12,01,57,-4.30
2013,12,12,01,58,-4.30
2013,12,12,01,59,-4.30
2013,12,12,02,00,-4.30
2013,12,12,02,04,-4.30
2013,12,12,02,05,-4.30
2013,12,12,02,06,-4.30
2013,12,12,02,07,-4.30
2013,12,12,02,08,-4.30
2013,12,12,02,09,-4.30
2013,12,12,02,10,-4.30
2013,12,12,02,11,-4.30
2013,12,12,02,12,-4.30
2013,12,12,02,13,-4.30
2013,12,12,02,14,-4.30
2013,12,12,02,15,-4.30
2013,12,12,02,19,-4.30
2013,12,12,02,20,-4.30
2013,12,12,02,21,-4.30
2013,12,12,02,22,-4.30
2013,12,12,02,23,-4.30
2013,12,12,02,24,-4.30
2013,12,12,02,25,-4.30
2013,12,12,02,26,-4.30
2013,12,12,02,27,-4.30
2013,12,12,02,28,-4.30
2013,12,12,02,29,-4.30
2013,12,12,02,30,-4.30
2013,12,12,02,34,-4.30
2013,12,12,02,35,-4.30
2013,12,12,02,36,-4.30
2013,12,12,02,37,-4.30
2013,12,12,02,38,-4.30
2013,12,12,02,39,-4.30
2013,12,12,02,40,-4.30
2013,12,12,02,41,-4.30
2013,12,12,02,42,-4.30
2013,12,12,02,43,-4.30
2013,12,12,02,44,-4.30
2013,12,12,02,45,-4.30
2013,12,12,02,49,-4.30
2013,12,12,02,50,-4.30
2013,12,12,02,51,-4.30
2013,12,12,02,52,-4.30
2013,12,12,02,53,-4.30
2013,12,12,02,54,-4.30
2013,12,12,02,55,-4.30
2013,12,12,02,56,-4.30
2013,12,12,02,57,-4.30
2013,12,12,02,58,-4.30
2013,12,12,02,59,-4.30
2013,12,12,03,00,-4.30
2013,12,12,03,04,-4.30
2013,12,12,03,05,-4.30
2013,12,12,03,06,-4.30
2013,12,12,03,07,-4.30
2013,12,12,03,08,-4.30
2013,12,12,03,09,-4.30
2013,12,12,03,10,-4.30
2013,12,12,03,11,-4.30
2013,12,12,03,12,-4.30
2013,12,12,03,13,-4.30
2013,12,12,03,14,-4.30
2013,12,12,03,15,-4.30
2013,12,12,03,19,-4.40
2013,12,12,03,20,-4.40
2013,12,12,03,21,-4.40
2013,12,12,03,22,-4.40
2013,12,12,03,23,-4.40
2013,12,12,03,24,-4.40
2013,12,12,03,25,-4.40
2013,12,12,03,26,-4.40
2013,12,12,03,27,-4.40
2013,12,12,03,28,-4.40
2013,12,12,03,29,-4.40
2013,12,12,03,30,-4.40
2013,12,12,03,34,-4.40
2013,12,12,03,35,-4.40
2013,12,12,03,36,-4.40
2013,12,12,03,37,-4.40
2013,12,12,03,38,-4.40
2013,12,12,03,39,-4.40
2013,12,12,03,40,-4.40
2013,12,12,03,41,-4.40
2013,12,12,03,42,-4.40
2013,12,12,03,43,-4.40
2013,12,12,03,44,-4.40
2013,12,12,03,45,-4.40
2013,12,12,03,49,-4.30
2013,12,12,03,50,-4.30
2013,12,12,03,51,-4.30
2013,12,12,03,52,-4.30
2013,12,12,03,53,-4.30
2013,12,12,03,54,-4.30
2013,12,12,03,55,-4.30
2013,12,12,03,56,-4.30
2013,12,12,03,57,-4.30
2013,12,12,03,58,-4.30
2013,12,12,03,59,-4.30
2013,12,12,04,00,-4.30
2013,12,12,04,04,-4.30
2013,12,12,04,05,-4.30
2013,12,12,04,06,-4.30
2013,12,12,04,07,-4.30
2013,12,12,04,08,-4.30
2013,12,12,04,09,-4.30
2013,12,12,04,10,-4.30
2013,12,12,04,11,-4.30
2013,12,12,04,12,-4.30
2013,12,12,04,13,-4.30
2013,12,12,04,14,-4.30
2013,12,12,04,15,-4.30
2013,12,12,04,19,-4.20
2013,12,12,04,20,-4.20
2013,12,12,04,21,-4.20
2013,12,12,04,22,-4.20
2013,12,12,04,23,-4.20
2013,12,12,04,24,-4.20
2013,12,12,04,25,-4.20
2013,12,12,04,26,-4.20
2013,12,12,04,27,-4.20
2013,12,12,04,28,-4.20
2013,12,12,04,29,-4.20
2013,12,12,04,30,-4.20
2013,12,12,04,34,-4.20
2013,12,12,04,35,-4.20
2013,12,12,04,36,-4.20
2013,12,12,04,37,-4.20
2013,12,12,04,38,-4.20
2013,12,12,04,39,-4.20
2013,12,12,04,40,-4.20
2013,12,12,04,41,-4.20
2013,12,12,04,42,-4.20
2013,12,12,04,43,-4.20
2013,12,12,04,44,-4.20
2013,12,12,04,45,-4.20
2013,12,12,04,49,-4.20
2013,12,12,04,50,-4.20
2013,12,12,04,51,-4.20
2013,12,12,04,52,-4.20
2013,12,12,04,53,-4.20
2013,12,12,04,54,-4.20
2013,12,12,04,55,-4.20
2013,12,12,04,56,-4.20
2013,12,12,04,57,-4.20
2013,12,12,04,58,-4.20
2013,12,12,04,59,-4.20
2013,12,12,05,00,-4.20
2013,12,12,05,04,-4.20
2013,12,12,05,05,-4.20
2013,12,12,05,06,-4.20
2013,12,12,05,07,-4.20
2013,12,12,05,08,-4.20
2013,12,12,05,09,-4.20
2013,12,12,05,10,-4.20
2013,12,12,05,11,-4.20
2013,12,12,05,12,-4.20
2013,12,12,05,13,-4.20
2013,12,12,05,14,-4.20
2013,12,12,05,15,-4.20
2013,12,12,05,19,-4.20
2013,12,12,05,20,-4.20
2013,12,12,05,21,-4.20
2013,12,12,05,22,-4.20
2013,12,12,05,23,-4.20
2013,12,12,05,24,-4.20
2013,12,12,05,25,-4.20
2013,12,12,05,26,-4.20
2013,12,12,05,27,-4.20
2013,12,12,05,28,-4.20
2013,12,12,05,29,-4.20
2013,12,12,05,30,-4.20
2013,12,12,05,34,-4.30
2013,12,12,05,35,-4.30
2013,12,12,05,36,-4.30
2013,12,12,05,37,-4.30
2013,12,12,05,38,-4.30
2013,12,12,05,39,-4.30
2013,12,12,05,40,-4.30
2013,12,12,05,41,-4.30
2013,12,12,05,42,-4.30
2013,12,12,05,43,-4.30
2013,12,12,05,44,-4.30
2013,12,12,05,45,-4.30
2013,12,12,05,49,-4.30
2013,12,12,05,50,-4.30
2013,12,12,05,51,-4.30
2013,12,12,05,52,-4.30
2013,12,12,05,53,-4.30
2013,12,12,05,54,-4.30
2013,12,12,05,55,-4.30
2013,12,12,05,56,-4.30
2013,12,12,05,57,-4.30
2013,12,12,05,58,-4.30
2013,12,12,05,59,-4.30
2013,12,12,06,00,-4.30
2013,12,12,06,04,-4.30
2013,12,12,06,05,-4.30
2013,12,12,06,06,-4.30
2013,12,12,06,07,-4.30
2013,12,12,06,08,-4.30
2013,12,12,06,09,-4.30
2013,12,12,06,10,-4.30
2013,12,12,06,11,-4.30
2013,12,12,06,12,-4.30
2013,12,12,06,13,-4.30
2013,12,12,06,14,-4.30
2013,12,12,06,15,-4.30
2013,12,12,06,19,-4.40
2013,12,12,06,20,-4.40
2013,12,12,06,21,-4.40
2013,12,12,06,22,-4.40
2013,12,12,06,23,-4.40
2013,12,12,06,24,-4.40
2013,12,12,06,25,-4.40
2013,12,12,06,26,-4.40
2013,12,12,06,27,-4.40
2013,12,12,06,28,-4.40
2013,12,12,06,29,-4.40
2013,12,12,06,30,-4.40
2013,12,12,06,34,-4.40
2013,12,12,06,35,-4.40
2013,12,12,06,36,-4.40
2013,12,12,06,37,-4.40
2013,12,12,06,38,-4.40
2013,12,12,06,39,-4.40
2013,12,12,06,40,-4.40
2013,12,12,06,41,-4.40
2013,12,12,06,42,-4.40
2013,12,12,06,43,-4.40
2013,12,12,06,44,-4.40
2013,12,12,06,45,-4.40
2013,12,12,06,49,-4.50
2013,12,12,06,50,-4.50
2013,12,12,06,51,-4.50
2013,12,12,06,52,-4.50
2013,12,12,06,53,-4.50
2013,12,12,06,54,-4.50
2013,12,12,06,55,-4.50
2013,12,12,06,56,-4.50
2013,12,12,06,57,-4.50
2013,12,12,06,58,-4.50
2013,12,12,06,59,-4.50
2013,12,12,07,00,-4.50
2013,12,12,07,04,-4.50
2013,12,12,07,05,-4.50
2013,12,12,07,06,-4.50
2013,12,12,07,07,-4.50
2013,12,12,07,08,-4.50
2013,12,12,07,09,-4.50
2013,12,12,07,10,-4.50
2013,12,12,07,11,-4.50
2013,12,12,07,12,-4.50
2013,12,12,07,13,-4.50
2013,12,12,07,14,-4.50
2013,12,12,07,15,-4.50
2013,12,12,07,19,-4.60
2013,12,12,07,20,-4.60
2013,12,12,07,21,-4.60
2013,12,12,07,22,-4.60
2013,12,12,07,23,-4.60
2013,12,12,07,24,-4.60
2013,12,12,07,25,-4.60
2013,12,12,07,26,-4.60
2013,12,12,07,27,-4.60
2013,12,12,07,28,-4.60
2013,12,12,07,29,-4.60
2013,12,12,07,30,-4.60
2013,12,12,07,34,-4.60
2013,12,12,07,35,-4.60
2013,12,12,07,36,-4.60
2013,12,12,07,37,-4.60
2013,12,12,07,38,-4.60
2013,12,12,07,39,-4.60
2013,12,12,07,40,-4.60
2013,12,12,07,41,-4.60
2013,12,12,07,42,-4.60
2013,12,12,07,43,-4.60
2013,12,12,07,44,-4.60
2013,12,12,07,45,-4.60
2013,12,12,07,49,-4.60
2013,12,12,07,50,-4.60
2013,12,12,07,51,-4.60
2013,12,12,07,52,-4.60
2013,12,12,07,53,-4.60
2013,12,12,07,54,-4.60
2013,12,12,07,55,-4.60
2013,12,12,07,56,-4.60
2013,12,12,07,57,-4.60
2013,12,12,07,58,-4.60
2013,12,12,07,59,-4.60
2013,12,12,08,00,-4.60
2013,12,12,08,04,-4.60
2013,12,12,08,05,-4.60
2013,12,12,08,06,-4.60
2013,12,12,08,07,-4.60
2013,12,12,08,08,-4.60
2013,12,12,08,09,-4.60
2013,12,12,08,10,-4.60
2013,12,12,08,11,-4.60
2013,12,12,08,12,-4.60
2013,12,12,08,13,-4.60
2013,12,12,08,14,-4.60
2013,12,12,08,15,-4.60
2013,12,12,08,19,-4.60
2013,12,12,08,20,-4.60
2013,12,12,08,21,-4.60
2013,12,12,08,22,-4.60
2013,12,12,08,23,-4.60
2013,12,12,08,24,-4.60
2013,12,12,08,25,-4.60
2013,12,12,08,26,-4.60
2013,12,12,08,27,-4.60
2013,12,12,08,28,-4.60
2013,12,12,08,29,-4.60
2013,12,12,08,30,-4.60
2013,12,12,08,34,-4.60
2013,12,12,08,35,-4.60
2013,12,12,08,36,-4.60
2013,12,12,08,37,-4.60
2013,12,12,08,38,-4.60
2013,12,12,08,39,-4.60
2013,12,12,08,40,-4.60
2013,12,12,08,41,-4.60
2013,12,12,08,42,-4.60
2013,12,12,08,43,-4.60
2013,12,12,08,44,-4.60
2013,12,12,08,45,-4.60
2013,12,12,08,49,-4.60
2013,12,12,08,50,-4.60
2013,12,12,08,51,-4.60
2013,12,12,08,52,-4.60
2013,12,12,08,53,-4.60
2013,12,12,08,54,-4.60
2013,12,12,08,55,-4.60
2013,12,12,08,56,-4.60
2013,12,12,08,57,-4.60
2013,12,12,08,58,-4.60
2013,12,12,08,59,-4.60
2013,12,12,09,00,-4.60
2013,12,12,09,04,-4.50
2013,12,12,09,05,-4.50
2013,12,12,09,06,-4.50
2013,12,12,09,07,-4.50
2013,12,12,09,08,-4.50
2013,12,12,09,09,-4.50
2013,12,12,09,10,-4.50
2013,12,12,09,11,-4.50
2013,12,12,09,12,-4.50
2013,12,12,09,13,-4.50
2013,12,12,09,14,-4.50
2013,12,12,09,15,-4.50
2013,12,12,09,19,-4.40
2013,12,12,09,20,-4.40
2013,12,12,09,21,-4.40
2013,12,12,09,22,-4.40
2013,12,12,09,23,-4.40
2013,12,12,09,24,-4.40
2013,12,12,09,25,-4.40
2013,12,12,09,26,-4.40
2013,12,12,09,27,-4.40
2013,12,12,09,28,-4.40
2013,12,12,09,29,-4.40
2013,12,12,09,30,-4.40
2013,12,12,09,34,-4.30
2013,12,12,09,35,-4.30
2013,12,12,09,36,-4.30
2013,12,12,09,37,-4.30
2013,12,12,09,38,-4.30
2013,12,12,09,39,-4.30
2013,12,12,09,40,-4.30
2013,12,12,09,41,-4.30
2013,12,12,09,42,-4.30
2013,12,12,09,43,-4.30
2013,12,12,09,44,-4.30
2013,12,12,09,45,-4.30
2013,12,12,09,49,-4.20
2013,12,12,09,50,-4.20
2013,12,12,09,51,-4.20
2013,12,12,09,52,-4.20
2013,12,12,09,53,-4.20
2013,12,12,09,54,-4.20
2013,12,12,09,55,-4.20
2013,12,12,09,56,-4.20
2013,12,12,09,57,-4.20
2013,12,12,09,58,-4.20
2013,12,12,09,59,-4.20
2013,12,12,10,00,-4.20
2013,12,12,10,04,-4.10
2013,12,12,10,05,-4.10
2013,12,12,10,06,-4.10
2013,12,12,10,07,-4.10
2013,12,12,10,08,-4.10
2013,12,12,10,09,-4.10
2013,12,12,10,10,-4.10
2013,12,12,10,11,-4.10
2013,12,12,10,12,-4.10
2013,12,12,10,13,-4.10
2013,12,12,10,14,-4.10
2013,12,12,10,15,-4.10
2013,12,12,10,19,-4.10
2013,12,12,10,20,-4.10
2013,12,12,10,21,-4.10
2013,12,12,10,22,-4.10
2013,12,12,10,23,-4.10
2013,12,12,10,24,-4.10
2013,12,12,10,25,-4.10
2013,12,12,10,26,-4.10
2013,12,12,10,27,-4.10
2013,12,12,10,28,-4.10
2013,12,12,10,29,-4.10
2013,12,12,10,30,-4.10
2013,12,12,10,34,-4.00
2013,12,12,10,35,-4.00
2013,12,12,10,36,-4.00
2013,12,12,10,37,-4.00
2013,12,12,10,38,-4.00
2013,12,12,10,39,-4.00
2013,12,12,10,40,-4.00
2013,12,12,10,41,-4.00
2013,12,12,10,42,-4.00
2013,12,12,10,43,-4.00
2013,12,12,10,44,-4.00
2013,12,12,10,45,-4.00
2013,12,12,10,49,-3.70
2013,12,12,10,50,-3.70
2013,12,12,10,51,-3.70
2013,12,12,10,52,-3.70
2013,12,12,10,53,-3.70
2013,12,12,10,54,-3.70
2013,12,12,10,55,-3.70
2013,12,12,10,56,-3.70
2013,12,12,10,57,-3.70
2013,12,12,10,58,-3.70
2013,12,12,10,59,-3.70
2013,12,12,11,00,-3.70
2013,12,12,11,04,-3.60
2013,12,12,11,05,-3.60
2013,12,12,11,06,-3.60
2013,12,12,11,07,-3.60
2013,12,12,11,08,-3.60
2013,12,12,11,09,-3.60
2013,12,12,11,10,-3.60
2013,12,12,11,11,-3.60
2013,12,12,11,12,-3.60
2013,12,12,11,13,-3.60
2013,12,12,11,14,-3.60
2013,12,12,11,15,-3.60
2013,12,12,11,19,-3.50
2013,12,12,11,20,-3.50
2013,12,12,11,21,-3.50
2013,12,12,11,22,-3.50
2013,12,12,11,23,-3.50
2013,12,12,11,24,-3.50
2013,12,12,11,25,-3.50
2013,12,12,11,26,-3.50
2013,12,12,11,27,-3.50
2013,12,12,11,28,-3.50
2013,12,12,11,29,-3.50
2013,12,12,11,30,-3.50
2013,12,12,11,34,-3.30
2013,12,12,11,35,-3.30
2013,12,12,11,36,-3.30
2013,12,12,11,37,-3.30
2013,12,12,11,38,-3.30
2013,12,12,11,39,-3.30
2013,12,12,11,40,-3.30
2013,12,12,11,41,-3.30
2013,12,12,11,42,-3.30
2013,12,12,11,43,-3.30
2013,12,12,11,44,-3.30
2013,12,12,11,45,-3.30
2013,12,12,11,49,-3.10
2013,12,12,11,50,-3.10
2013,12,12,11,51,-3.10
2013,12,12,11,52,-3.10
2013,12,12,11,53,-3.10
2013,12,12,11,54,-3.10
2013,12,12,11,55,-3.10
2013,12,12,11,56,-3.10
2013,12,12,11,57,-3.10
2013,12,12,11,58,-3.10
2013,12,12,11,59,-3.10
2013,12,12,12,00,-3.10
2013,12,12,12,04,-3.10
2013,12,12,12,05,-3.10
2013,12,12,12,06,-3.10
2013,12,12,12,07,-3.10
2013,12,12,12,08,-3.10
2013,12,12,12,09,-3.10
2013,12,12,12,10,-3.10
2013,12,12,12,11,-3.10
2013,12,12,12,12,-3.10
2013,12,12,12,13,-3.10
2013,12,12,12,14,-3.10
2013,12,12,12,15,-3.10
2013,12,12,12,19,-3.20
2013,12,12,12,20,-3.20
2013,12,12,12,21,-3.20
2013,12,12,12,22,-3.20
2013,12,12,12,23,-3.20
2013,12,12,12,24,-3.20
2013,12,12,12,25,-3.20
2013,12,12,12,26,-3.20
2013,12,12,12,27,-3.20
2013,12,12,12,28,-3.20
2013,12,12,12,29,-3.20
2013,12,12,12,30,-3.20
2013,12,12,12,34,-3.20
2013,12,12,12,35,-3.20
2013,12,12,12,36,-3.20
2013,12,12,12,37,-3.20
2013,12,12,12,38,-3.20
2013,12,12,12,39,-3.20
2013,12,12,12,40,-3.20
2013,12,12,12,41,-3.20
2013,12,12,12,42,-3.20
2013,12,12,12,43,-3.20
2013,12,12,12,44,-3.20
2013,12,12,12,45,-3.20
2013,12,12,12,49,-3.40
2013,12,12,12,50,-3.40
2013,12,12,12,51,-3.40
2013,12,12,12,52,-3.40
2013,12,12,12,53,-3.40
2013,12,12,12,54,-3.40
2013,12,12,12,55,-3.40
2013,12,12,12,56,-3.40
2013,12,12,12,57,-3.40
2013,12,12,12,58,-3.40
2013,12,12,12,59,-3.40
2013,12,12,13,00,-3.40
2013,12,12,13,04,-3.30
2013,12,12,13,05,-3.30
2013,12,12,13,06,-3.30
2013,12,12,13,07,-3.30
2013,12,12,13,08,-3.30
2013,12,12,13,09,-3.30
2013,12,12,13,10,-3.30
2013,12,12,13,11,-3.30
2013,12,12,13,12,-3.30
2013,12,12,13,13,-3.30
2013,12,12,13,14,-3.30
2013,12,12,13,15,-3.30
2013,12,12,13,19,-3.10
2013,12,12,13,20,-3.10
2013,12,12,13,21,-3.10
2013,12,12,13,22,-3.10
2013,12,12,13,23,-3.10
2013,12,12,13,24,-3.10
2013,12,12,13,25,-3.10
2013,12,12,13,26,-3.10
2013,12,12,13,27,-3.10
2013,12,12,13,28,-3.10
2013,12,12,13,29,-3.10
2013,12,12,13,30,-3.10
2013,12,12,13,34,-2.90
2013,12,12,13,35,-2.90
2013,12,12,13,36,-2.90
2013,12,12,13,37,-2.90
2013,12,12,13,38,-2.90
2013,12,12,13,39,-2.90
2013,12,12,13,40,-2.90
2013,12,12,13,41,-2.90
2013,12,12,13,42,-2.90
2013,12,12,13,43,-2.90
2013,12,12,13,44,-2.90
2013,12,12,13,45,-2.90
2013,12,12,13,49,-2.80
2013,12,12,13,50,-2.80
2013,12,12,13,51,-2.80
2013,12,12,13,52,-2.80
2013,12,12,13,53,-2.80
2013,12,12,13,54,-2.80
2013,12,12,13,55,-2.80
2013,12,12,13,56,-2.80
2013,12,12,13,57,-2.80
2013,12,12,13,58,-2.80
2013,12,12,13,59,-2.80
2013,12,12,14,00,-2.80
2013,12,12,14,04,-2.70
2013,12,12,14,05,-2.70
2013,12,12,14,06,-2.70
2013,12,12,14,07,-2.70
2013,12,12,14,08,-2.70
2013,12,12,14,09,-2.70
2013,12,12,14,10,-2.70
2013,12,12,14,11,-2.70
2013,12,12,14,12,-2.70
2013,12,12,14,13,-2.70
2013,12,12,14,14,-2.70
2013,12,12,14,15,-2.70
2013,12,12,14,19,-2.90
2013,12,12,14,20,-2.90
2013,12,12,14,21,-2.90
2013,12,12,14,22,-2.90
2013,12,12,14,23,-2.90
2013,12,12,14,24,-2.90
2013,12,12,14,25,-2.90
2013,12,12,14,26,-2.90
2013,12,12,14,27,-2.90
2013,12,12,14,28,-2.90
2013,12,12,14,29,-2.90
2013,12,12,14,30,-2.90
2013,12,12,14,34,-2.80
2013,12,12,14,35,-2.80
2013,12,12,14,36,-2.80
2013,12,12,14,37,-2.80
2013,12,12,14,38,-2.80
2013,12,12,14,39,-2.80
2013,12,12,14,40,-2.80
2013,12,12,14,41,-2.80
2013,12,12,14,42,-2.80
2013,12,12,14,43,-2.80
2013,12,12,14,44,-2.80
2013,12,12,14,45,-2.80
2013,12,12,14,49,-2.70
2013,12,12,14,50,-2.70
2013,12,12,14,51,-2.70
2013,12,12,14,52,-2.70
2013,12,12,14,53,-2.70
2013,12,12,14,54,-2.70
2013,12,12,14,55,-2.70
2013,12,12,14,56,-2.70
2013,12,12,14,57,-2.70
2013,12,12,14,58,-2.70
2013,12,12,14,59,-2.70
2013,12,12,15,00,-2.70
2013,12,12,15,04,-2.90
2013,12,12,15,05,-2.90
2013,12,12,15,06,-2.90
2013,12,12,15,07,-2.90
2013,12,12,15,08,-2.90
2013,12,12,15,09,-2.90
2013,12,12,15,10,-2.90
2013,12,12,15,11,-2.90
2013,12,12,15,12,-2.90
2013,12,12,15,13,-2.90
2013,12,12,15,14,-2.90
2013,12,12,15,15,-2.90
2013,12,12,15,19,-3.10
2013,12,12,15,20,-3.10
2013,12,12,15,21,-3.10
2013,12,12,15,22,-3.10
2013,12,12,15,23,-3.10
2013,12,12,15,24,-3.10
2013,12,12,15,25,-3.10
2013,12,12,15,26,-3.10
2013,12,12,15,27,-3.10
2013,12,12,15,28,-3.10
2013,12,12,15,29,-3.10
2013,12,12,15,30,-3.10
2013,12,12,15,34,-2.90
2013,12,12,15,35,-2.90
2013,12,12,15,36,-2.90
2013,12,12,15,37,-2.90
2013,12,12,15,38,-2.90
2013,12,12,15,39,-2.90
2013,12,12,15,40,-2.90
2013,12,12,15,41,-2.90
2013,12,12,15,42,-2.90
2013,12,12,15,43,-2.90
2013,12,12,15,44,-2.90
2013,12,12,15,45,-2.90
2013,12,12,15,49,-3.10
2013,12,12,15,50,-3.10
2013,12,12,15,51,-3.10
2013,12,12,15,52,-3.10
2013,12,12,15,53,-3.10
2013,12,12,15,54,-3.10
2013,12,12,15,55,-3.10
2013,12,12,15,56,-3.10
2013,12,12,15,57,-3.10
2013,12,12,15,58,-3.10
2013,12,12,15,59,-3.10
2013,12,12,16,00,-3.10
2013,12,12,16,04,-3.10
2013,12,12,16,05,-3.10
2013,12,12,16,06,-3.10
2013,12,12,16,07,-3.10
2013,12,12,16,08,-3.10
2013,12,12,16,09,-3.10
2013,12,12,16,10,-3.10
2013,12,12,16,11,-3.10
2013,12,12,16,12,-3.10
2013,12,12,16,13,-3.10
2013,12,12,16,14,-3.10
2013,12,12,16,15,-3.10
2013,12,12,16,19,-3.10
2013,12,12,16,20,-3.10
2013,12,12,16,21,-3.10
2013,12,12,16,22,-3.10
2013,12,12,16,23,-3.10
2013,12,12,16,24,-3.10
2013,12,12,16,25,-3.10
2013,12,12,16,26,-3.10
2013,12,12,16,27,-3.10
2013,12,12,16,28,-3.10
2013,12,12,16,29,-3.10
2013,12,12,16,30,-3.10
2013,12,12,16,34,-3.10
2013,12,12,16,35,-3.10
2013,12,12,16,36,-3.10
2013,12,12,16,37,-3.10
2013,12,12,16,38,-3.10
2013,12,12,16,39,-3.10
2013,12,12,16,40,-3.10
2013,12,12,16,41,-3.10
2013,12,12,16,42,-3.10
2013,12,12,16,43,-3.10
2013,12,12,16,44,-3.10
2013,12,12,16,45,-3.10
2013,12,12,16,49,-3.10
2013,12,12,16,50,-3.10
2013,12,12,16,51,-3.10
2013,12,12,16,52,-3.10
2013,12,12,16,53,-3.10
2013,12,12,16,54,-3.10
2013,12,12,16,55,-3.10
2013,12,12,16,56,-3.10
2013,12,12,16,57,-3.10
2013,12,12,16,58,-3.10
2013,12,12,16,59,-3.10
2013,12,12,17,00,-3.10
2013,12,12,17,04,-3.00
2013,12,12,17,05,-3.00
2013,12,12,17,06,-3.00
2013,12,12,17,07,-3.00
2013,12,12,17,08,-3.00
2013,12,12,17,09,-3.00
2013,12,12,17,10,-3.00
2013,12,12,17,11,-3.00
2013,12,12,17,12,-3.00
2013,12,12,17,13,-3.00
2013,12,12,17,14,-3.00
2013,12,12,17,15,-3.00
2013,12,12,17,19,-2.90
2013,12,12,17,20,-2.90
2013,12,12,17,21,-2.90
2013,12,12,17,22,-2.90
2013,12,12,17,23,-2.90
2013,12,12,17,24,-2.90
2013,12,12,17,25,-2.90
2013,12,12,17,26,-2.90
2013,12,12,17,27,-2.90
2013,12,12,17,28,-2.90
2013,12,12,17,29,-2.90
2013,12,12,17,30,-2.90
2013,12,12,17,34,-2.80
2013,12,12,17,35,-2.80
2013,12,12,17,36,-2.80
2013,12,12,17,37,-2.80
2013,12,12,17,38,-2.80
2013,12,12,17,39,-2.80
2013,12,12,17,40,-2.80
2013,12,12,17,41,-2.80
2013,12,12,17,42,-2.80
2013,12,12,17,43,-2.80
2013,12,12,17,44,-2.80
2013,12,12,17,45,-2.80
2013,12,12,17,49,-2.80
2013,12,12,17,50,-2.80
2013,12,12,17,51,-2.80
2013,12,12,17,52,-2.80
2013,12,12,17,53,-2.80
2013,12,12,17,54,-2.80
2013,12,12,17,55,-2.80
2013,12,12,17,56,-2.80
2013,12,12,17,57,-2.80
2013,12,12,17,58,-2.80
2013,12,12,17,59,-2.80
2013,12,12,18,00,-2.80
2013,12,12,18,04,-2.80
2013,12,12,18,05,-2.80
2013,12,12,18,06,-2.80
2013,12,12,18,07,-2.80
2013,12,12,18,08,-2.80
2013,12,12,18,09,-2.80
2013,12,12,18,10,-2.80
2013,12,12,18,11,-2.80
2013,12,12,18,12,-2.80
2013,12,12,18,13,-2.80
2013,12,12,18,14,-2.80
2013,12,12,18,15,-2.80
2013,12,12,18,19,-2.80
2013,12,12,18,20,-2.80
2013,12,12,18,21,-2.80
2013,12,12,18,22,-2.80
2013,12,12,18,23,-2.80
2013,12,12,18,24,-2.80
2013,12,12,18,25,-2.80
2013,12,12,18,26,-2.80
2013,12,12,18,27,-2.80
2013,12,12,18,28,-2.80
2013,12,12,18,29,-2.80
2013,12,12,18,30,-2.80
2013,12,12,18,34,-2.70
2013,12,12,18,35,-2.70
2013,12,12,18,36,-2.70
2013,12,12,18,37,-2.70
2013,12,12,18,38,-2.70
2013,12,12,18,39,-2.70
2013,12,12,18,40,-2.70
2013,12,12,18,41,-2.70
2013,12,12,18,42,-2.70
2013,12,12,18,43,-2.70
2013,12,12,18,44,-2.70
2013,12,12,18,45,-2.70
2013,12,12,18,49,-2.70
2013,12,12,18,50,-2.70
2013,12,12,18,51,-2.70
2013,12,12,18,52,-2.70
2013,12,12,18,53,-2.70
2013,12,12,18,54,-2.70
2013,12,12,18,55,-2.70
2013,12,12,18,56,-2.70
2013,12,12,18,57,-2.70
2013,12,12,18,58,-2.70
2013,12,12,18,59,-2.70
2013,12,12,19,00,-2.70
2013,12,12,19,04,-2.60
2013,12,12,19,05,-2.60
2013,12,12,19,06,-2.60
2013,12,12,19,07,-2.60
2013,12,12,19,08,-2.60
2013,12,12,19,09,-2.60
2013,12,12,19,10,-2.60
2013,12,12,19,11,-2.60
2013,12,12,19,12,-2.60
2013,12,12,19,13,-2.60
2013,12,12,19,14,-2.60
2013,12,12,19,15,-2.60
2013,12,12,19,19,-2.30
2013,12,12,19,20,-2.30
2013,12,12,19,21,-2.30
2013,12,12,19,22,-2.30
2013,12,12,19,23,-2.30
2013,12,12,19,24,-2.30
2013,12,12,19,25,-2.30
2013,12,12,19,26,-2.30
2013,12,12,19,27,-2.30
2013,12,12,19,28,-2.30
2013,12,12,19,29,-2.30
2013,12,12,19,30,-2.30
2013,12,12,19,34,-2.30
2013,12,12,19,35,-2.30
2013,12,12,19,36,-2.30
2013,12,12,19,37,-2.30
2013,12,12,19,38,-2.30
2013,12,12,19,39,-2.30
2013,12,12,19,40,-2.30
2013,12,12,19,41,-2.30
2013,12,12,19,42,-2.30
2013,12,12,19,43,-2.30
2013,12,12,19,44,-2.30
2013,12,12,19,45,-2.30
2013,12,12,19,49,-2.30
2013,12,12,19,50,-2.30
2013,12,12,19,51,-2.30
2013,12,12,19,52,-2.30
2013,12,12,19,53,-2.30
2013,12,12,19,54,-2.30
2013,12,12,19,55,-2.30
2013,12,12,19,56,-2.30
2013,12,12,19,57,-2.30
2013,12,12,19,58,-2.30
2013,12,12,19,59,-2.30
2013,12,12,20,00,-2.30
2013,12,12,20,04,-2.00
2013,12,12,20,05,-2.00
2013,12,12,20,06,-2.00
2013,12,12,20,07,-2.00
2013,12,12,20,08,-2.00
2013,12,12,20,09,-2.00
2013,12,12,20,10,-2.00
2013,12,12,20,11,-2.00
2013,12,12,20,12,-2.00
2013,12,12,20,13,-2.00
2013,12,12,20,14,-2.00
2013,12,12,20,15,-2.00
2013,12,12,20,19,-1.60
2013,12,12,20,20,-1.60
2013,12,12,20,21,-1.60
2013,12,12,20,22,-1.60
2013,12,12,20,23,-1.60
2013,12,12,20,24,-1.60
2013,12,12,20,25,-1.60
2013,12,12,20,26,-1.60
2013,12,12,20,27,-1.60
2013,12,12,20,28,-1.60
2013,12,12,20,29,-1.60
2013,12,12,20,30,-1.60
2013,12,12,20,34,-1.40
2013,12,12,20,35,-1.40
2013,12,12,20,36,-1.40
2013,12,12,20,37,-1.40
2013,12,12,20,38,-1.40
2013,12,12,20,39,-1.40
2013,12,12,20,40,-1.40
2013,12,12,20,41,-1.40
2013,12,12,20,42,-1.40
2013,12,12,20,43,-1.40
2013,12,12,20,44,-1.40
2013,12,12,20,45,-1.40
2013,12,12,20,49,-1.40
2013,12,12,20,50,-1.40
2013,12,12,20,51,-1.40
2013,12,12,20,52,-1.40
2013,12,12,20,53,-1.40
2013,12,12,20,54,-1.40
2013,12,12,20,55,-1.40
2013,12,12,20,56,-1.40
2013,12,12,20,57,-1.40
2013,12,12,20,58,-1.40
2013,12,12,20,59,-1.40
2013,12,12,21,00,-1.40
2013,12,12,21,04,-1.20
2013,12,12,21,05,-1.20
2013,12,12,21,06,-1.20
2013,12,12,21,07,-1.20
2013,12,12,21,08,-1.20
2013,12,12,21,09,-1.20
2013,12,12,21,10,-1.20
2013,12,12,21,11,-1.20
2013,12,12,21,12,-1.20
2013,12,12,21,13,-1.20
2013,12,12,21,14,-1.20
2013,12,12,21,15,-1.20
2013,12,12,21,19,-1.10
2013,12,12,21,20,-1.10
2013,12,12,21,21,-1.10
2013,12,12,21,22,-1.10
2013,12,12,21,23,-1.10
2013,12,12,21,24,-1.10
2013,12,12,21,25,-1.10
2013,12,12,21,26,-1.10
2013,12,12,21,27,-1.10
2013,12,12,21,28,-1.10
2013,12,12,21,29,-1.10
2013,12,12,21,30,-1.10
2013,12,12,21,34,-0.80
2013,12,12,21,35,-0.80
2013,12,12,21,36,-0.80
2013,12,12,21,37,-0.80
2013,12,12,21,38,-0.80
2013,12,12,21,39,-0.80
2013,12,12,21,40,-0.80